This is the latest recevied weather packets stored in our database for station/object KK7MLS-13. If no packets are shown the sender has not sent any weather packets the latest 10 day(s).
| Time | Temp. | Humidity | Pressure | Rain* | Wind** | Luminosity | Snow |
|---|---|---|---|---|---|---|---|
| 1777847247 | 36.11° C | 26% | 1008.6 hPa | 0 mm | - | 577 W/m² | - |
| 1777846945 | 36.11° C | 23% | 1008.8 hPa | 0 mm | - | 588 W/m² | - |
| 1777846643 | 36.11° C | 20% | 1008.8 hPa | 0 mm | - | 597 W/m² | - |
| 1777846341 | 36.11° C | 24% | 1009 hPa | 0 mm | - | 607 W/m² | - |
| 1777846037 | 35.56° C | 24% | 1009.1 hPa | 0 mm | - | 615 W/m² | - |
| 1777845734 | 35.56° C | 26% | 1009.2 hPa | 0 mm | - | 626 W/m² | - |
| 1777845430 | 35.56° C | 23% | 1009.2 hPa | 0 mm | - | 634 W/m² | - |
| 1777845128 | 35° C | 26% | 1009.3 hPa | 0 mm | - | 642 W/m² | - |
| 1777844826 | 35° C | 25% | 1009.3 hPa | 0 mm | - | 649 W/m² | - |
| 1777844522 | 35° C | 27% | 1009.3 hPa | 0 mm | - | 659 W/m² | - |
| 1777844221 | 35° C | 25% | 1009.5 hPa | 0 mm | - | 665 W/m² | - |
| 1777843917 | 34.44° C | 24% | 1009.7 hPa | 0 mm | - | 671 W/m² | - |
| 1777843614 | 34.44° C | 24% | 1009.5 hPa | 0 mm | - | 679 W/m² | - |
| 1777843312 | 34.44° C | 26% | 1009.6 hPa | 0 mm | - | 684 W/m² | - |
| 1777843010 | 34.44° C | 25% | 1009.7 hPa | 0 mm | - | 690 W/m² | - |
| 1777842705 | 33.89° C | 31% | 1009.8 hPa | 0 mm | - | 696 W/m² | - |
| 1777842401 | 33.33° C | 28% | 1009.7 hPa | 0 mm | - | 703 W/m² | - |
| 1777842098 | 33.33° C | 29% | 1009.7 hPa | 0 mm | - | 705 W/m² | - |
| 1777841794 | 32.78° C | 31% | 1009.9 hPa | 0 mm | - | 711 W/m² | - |
| 1777841490 | 32.78° C | 33% | 1009.9 hPa | 0 mm | - | 713 W/m² | - |
| 1777841187 | 32.78° C | 32% | 1010.2 hPa | 0 mm | - | 717 W/m² | - |
| 1777840885 | 32.78° C | 33% | 1010.1 hPa | 0 mm | - | 721 W/m² | - |
| 1777840581 | 32.78° C | 30% | 1010.1 hPa | 0 mm | - | 725 W/m² | - |
| 1777840279 | 33.33° C | 30% | 1010.1 hPa | 0 mm | - | 728 W/m² | - |
| 1777839976 | 32.78° C | 32% | 1010.3 hPa | 0 mm | - | 730 W/m² | - |
* Rain latest hour (hover to see other rain measurements)
** Current wind speed in m/s (hover to see current wind gust speed)